Regional Weather Roundup
Issued by NWS

Home | Current Version | Previous Version | Text Only | Print | Product List | Glossary On
Versions: 1 2 3 4 5 6 7 8 9 10 11 12 13 14 15 16 17 18 19 20 21 22 23 24 25 26 27 28 29 30 31 32 33 34 35 36 37 38 39 40 41 42 43 44 45 46 47 48 49 50
000
ASUS43 KMPX 070410
RWRMN
WEATHER ROUNDUP FOR MINNESOTA
NATIONAL WEATHER SERVICE TWIN CITIES/CHANHASSEN MN
1000 PM CST SAT FEB 06 2016


NOTE: "FAIR" INDICATES FEW OR NO CLOUDS BELOW 12,000 FEET WITH NO
SIGNIFICANT WEATHER AND/OR OBSTRUCTIONS TO VISIBILITY. N/A MEANS
CURRENT SKY AND/OR WEATHER CONDITIONS ARE NOT AVAILABLE.

MNZ060>063-068>070-070500-
   Twin Cities Metro

CITY           SKY/WX    TMP DP  RH WIND       PRES   REMARKS
TWIN CITIES    CLOUDY    35  28  75 SW10      29.80F WCI  27
ST PAUL        CLOUDY    34  29  82 S3        29.81F
CRYSTAL        MOCLDY    35  29  78 S7        29.77F WCI  29
BLAINE         CLOUDY    36  30  80 S9        29.77F
LAKEVILLE      DRIZZLE   34  28  80 SW12G18   29.80F WCI  25
EDEN PRAIRIE   CLOUDY    35  28  75 SW12      29.78F WCI  27
SOUTH ST PAUL  CLOUDY    34  29  82 S7        29.79F WCI  28
LAKE ELMO      MIX PCPN  34  32  93 S12       29.81F WCI  25
$$
MNZ001>005-007-008-013>017-022>024-027-028-070500-
   Northwest Minnesota

CITY           SKY/WX    TMP DP  RH WIND       PRES   REMARKS
BEMIDJI        CLOUDY    36  31  82 SW7       29.56R
HALLOCK        CLOUDY    36  30  80 SW12      29.42F
ROSEAU         CLOUDY    37  32  81 SW13      29.43F
WARROAD        CLOUDY    36  32  87 SW8       29.44F
THIEF RVR FALL CLOUDY    37  30  75 S14       29.50F
CROOKSTON      PTCLDY    36  32  87 SW10      29.51F
FOSSTON        MOCLDY    32  30  93 S10       29.54F WCI  24
DETROIT LAKES  PTCLDY    36  34  93 SW9       29.59F
MOORHEAD       CLEAR     36  34  93 SW12      29.60F
PARK RAPIDS    CLOUDY    36  31  82 SW9       29.58F
MAHNOMEN       FAIR      34  32  93 SW16      29.55F WCI  24
$$
MNZ006-009>011-018-025>026-070500-
   North Central Minnesota

CITY           SKY/WX    TMP DP  RH WIND       PRES   REMARKS
BAUDETTE       CLOUDY    33  26  75 S9        29.46F WCI  25
FLAG ISLAND    CLOUDY    30  28  93 SE15      29.43F WCI  19
INTL FALLS     LGT SNOW  32  29  88 SE9       29.51F FOG     WCI  24
WASKISH        LGT RAIN  36  34  93 S6        29.50F
LONGVILLE      CLOUDY    36  30  80 SW6       29.59F
GRAND RAPIDS   CLOUDY    34  28  80 S10       29.59F WCI  26
CRANE LAKE     CLOUDY    30  28  93 S6        29.61F WCI  24
ORR            CLOUDY    30  27  86 S8        29.55F WCI  23
COOK           CLOUDY    32  28  86 S8        29.59F WCI  25
WALKER         CLOUDY    35  31  85 SW13G18   29.57F WCI  27
$$
MNZ012-019>021-037-070500-
   Northeast Minnesota

CITY           SKY/WX    TMP DP  RH WIND       PRES   REMARKS
DULUTH         FLURRIES  31  27  85 SW13      29.64F WCI  21
ELY            LGT SNOW  28  28 100 S7        29.60F WCI  21
HIBBING        CLOUDY    30  28  92 S5        29.60F WCI  25
EVELETH        MIX PCPN  32  32 100 S9        29.62F WCI  24
DULUTH HARBOR  MIX PCPN  36  28  75 S10       29.69F
TWO HARBORS    LGT SNOW  34  28  80 S7        29.65F WCI  28
SILVER BAY     LGT SNOW  32  30  93 S5        29.65F VSB 3/4 WCI  27
GRAND MARAIS     N/A     33  31  92 S8        29.72F WCI  26
G MARAIS ARPRT LGT SNOW  27  23  86 S5        29.66F WCI  21
$$
MNZ029>031-032-039>041-046>048-054>057-064-070500-
   West Central Minnesota

CITY           SKY/WX    TMP DP  RH WIND       PRES   REMARKS
FERGUS FALLS   MOCLDY    34  34 100 S8        29.67F WCI  27
WHEATON        DRIZZLE   37  34  87 SW13      29.71S
MORRIS         CLOUDY    34  30  86 S8        29.68F WCI  27
ALEXANDRIA     MOCLDY    34  30  85 SW15      29.66F WCI  24
ELBOW LAKE     MOCLDY    33  32  94 W9        29.66F FOG     WCI  25
WADENA         CLOUDY    36  34  93 SW9       29.61F
GLENWOOD       CLOUDY    34  30  86 SW13      29.70R WCI  25
APPLETON       CLOUDY    36  30  80 SW7       29.70F
BENSON         CLOUDY    34  30  86 SW8       29.71F WCI  27
ORTONVILLE     CLOUDY    36  30  80 CALM      29.70F
MADISON        CLOUDY    39  30  70 SW13      29.72F
WILLMAR        FAIR      36  30  80 SW7       29.72F
$$
MNZ033>034-036-042>043-049>051-058-059-070500-
   Central Minnesota

CITY           SKY/WX    TMP DP  RH WIND       PRES   REMARKS
ST CLOUD       CLOUDY    33  29  85 S13       29.69F WCI  24
SAUK CENTRE    FAIR      33  30  89 SW12      29.68S WCI  24
PAYNESVILLE    CLOUDY    34  29  83 S7        29.70F WCI  28
AITKIN         CLOUDY    37  30  75 S8        29.62F
PINE RIVER     CLOUDY    36  30  80 SW7       29.64F
BRAINERD       CLOUDY    35  31  85 S8        29.63F WCI  29
STAPLES        CLOUDY    36  34  93 SW9       29.63S
LONG PRAIRIE   MOCLDY    32  30  93 S9        29.68S WCI  24
LITTLE FALLS   CLOUDY    34  30  86 S8        29.67F WCI  27
LITCHFIELD     CLOUDY    36  30  80 CALM      29.71F
BUFFALO        PTCLDY    34  29  82 S8        29.77F WCI  27
MAPLE LAKE     CLOUDY    35  31  86 S6        29.75F WCI  30
$$
MNZ037-044-045-052-053-070500-
   East Central Minnesota

CITY           SKY/WX    TMP DP  RH WIND       PRES   REMARKS
PRINCETON      CLOUDY    34  30  86 S9        29.73F WCI  26
MORA           CLOUDY    32  30  93 SW10G17   29.72F WCI  24
CAMBRIDGE      CLOUDY    36  28  75 S12       29.72F
RUSH CITY      CLOUDY    33  30  86 S13G18    29.74F WCI  24
MOOSE LAKE     CLOUDY    32  30  93 S9        29.65F WCI  24
HINCKLEY       DRIZZLE   34  32  93 S12       29.71F WCI  25
CLOQUET        FLURRIES  32  27  80 S14G22    29.65F WCI  22
MCGREGOR       CLOUDY    34  32  93 S12G17    29.64F WCI  25
$$
MNZ071>073-080-081-089-090-097-098-070500-
   Southwest Minnesota

CITY           SKY/WX    TMP DP  RH WIND       PRES   REMARKS
MONTEVIDEO     CLOUDY    36  30  80 W8        29.74F
GRANITE FALLS  CLOUDY    36  32  85 S13       29.75R
CANBY          MOCLDY    40  33  74 SW16G24   29.74S
MARSHALL       CLOUDY    36  29  75 SW6       29.74F
REDWOOD FALLS  CLOUDY    35  29  78 S10       29.74F WCI  27
OLIVIA         MOCLDY    34  30  86 SW10      29.74F WCI  26
PIPESTONE        N/A     34  25  69 SW9       29.78F WCI  26
WINDOM         CLOUDY    34  28  80 SW9       29.81F WCI  26
WORTHINGTON    CLOUDY    30  25  80 SW16      29.83F WCI  19
JACKSON        CLOUDY    32  27  80 SW14      29.83F WCI  22
TRACY          CLOUDY    35  29  80 SW21      29.76F WCI  24
SLAYTON        CLOUDY    32  29  91 SW20      29.78F WCI  20
$$
MNZ065>067-074>077-082>085-091>093-070500-
   South Central Minnesota

CITY           SKY/WX    TMP DP  RH WIND       PRES   REMARKS
MANKATO        CLOUDY    34  27  75 S9        29.82F WCI  26
NEW ULM        CLOUDY    34  28  80 SW9       29.80F WCI  26
ST JAMES       CLOUDY    36  28  75 SW14G22   29.82F
FAIRMONT       CLOUDY    34  25  69 SW15      29.82F WCI  24
GLENCOE        CLOUDY    35  32  87 SW9       29.77F WCI  28
FARIBAULT      CLOUDY    34  28  80 S12G17    29.83F WCI  25
OWATONNA       CLOUDY    34  27  75 S18       29.83F WCI  23
WASECA         CLOUDY    32  28  86 S16       29.84F WCI  21
ALBERT LEA     CLOUDY    34  27  75 S14G20    29.83F WCI  24
$$
MNZ078>079-086>088-094>096-070500-
   Southeast Minnesota

CITY           SKY/WX    TMP DP  RH WIND       PRES   REMARKS
ROCHESTER      CLOUDY    31  27  85 S20       29.86F WCI  19
RED WING       MIX PCPN  34  27  75 SW5       29.84F WCI  30
STANTON        CLOUDY    36  29  75 SW16G26   29.79F
DODGE CENTER   CLOUDY    30  28  93 SW18      29.83F WCI  18
WINONA         CLOUDY    34  30  86 SW9       29.91F WCI  26
AUSTIN         CLOUDY    30  28  93 S15       29.86F WCI  19
PRESTON        CLOUDY    29  27  91 S16G23    29.89F WCI  18
$$
ABBREVIATIONS USED IN REMARKS
   TC - TEMPERATURES IN CELSIUS
  WCI - WIND CHILL INDEX
   HX - HEAT INDEX
  VSB - VISIBILITY
$$



USA.gov is the U.S. government's official web portal to all federal, state and local government web resources and services.